M I D A S
Marine Information and Data Acquisition System
Tripno 2024 of the Zeeleeuw from 2010-11-10 07:51:26 to 2010-11-10 16:08:12
Back to CruiseResearch ActivitiesStationsMapUnderway DataData graphs

EquipmentUnitsComments
TimeDGPSUTC
LatitudeDGPSDM.mWGS84
LongitudeDGPSDM.mWGS84
SpeedMeteo Stationm/sRelative wind speed
DirectionMeteo StationdegRelative wind direction
TemperatureMeteo Stationdeg CelciusAir temperature
PressureMeteo StationPaAtmospheric pressure
HumidityMeteo Station%Relative humidity
Missing or incorrect values are displayed as -999
Metereological data collected by the RV Zeeleeuw from 2010-11-10 07:48:18 to 2010-11-10 16:16:22
Time Latitude Longitude Speed Direction Temperature Pressure Humidity
2010-11-10 07:49 51°13.679 2°55.871 8.8 77 8.3 98940 41
2010-11-10 07:50 51°13.702 2°55.769 9.5 289 8.1 98950 40
2010-11-10 07:51 51°13.718 2°55.732 7.2 74 8 98970 41
2010-11-10 07:52 51°13.797 2°55.653 10.1 79 8 98980 43
2010-11-10 07:53 51°13.901 2°55.634 8.3 74 8 98970 42
2010-11-10 07:54 51°13.946 2°55.667 8.3 36 8 98940 43
2010-11-10 07:55 51°13.949 2°55.622 9.9 3 8 98950 42
2010-11-10 07:56 51°14.022 2°55.538 7.4 354 7.9 98940 42
2010-11-10 07:57 51°14.155 2°55.413 6 352 7.8 98940 44
2010-11-10 07:58 51°14.296 2°55.252 6.5 354 7.8 98920 43
2010-11-10 07:59 51°14.438 2°55.089 12 358 7.7 98920 44
2010-11-10 08:00 51°14.58 2°54.886 7 354 7.8 98910 44
2010-11-10 08:01 51°14.733 2°54.681 7.3 354 8 98910 44
2010-11-10 08:02 51°14.89 2°54.466 11.8 353 8.1 98930 44
2010-11-10 08:03 51°15.028 2°54.23 6.8 356 8.1 98920 42
2010-11-10 08:04 51°15.153 2°53.967 6.4 357 8.2 98930 43
2010-11-10 08:05 51°15.296 2°53.73 6 355 8.1 98910 44
2010-11-10 08:06 51°15.437 2°53.507 5.8 352 8.1 98930 44
2010-11-10 08:07 51°15.607 2°53.334 13.5 347 8 98920 44
2010-11-10 08:08 51°15.775 2°53.201 5.6 350 8 98920 43
2010-11-10 08:09 51°15.952 2°53.065 5.9 350 8 98930 43
2010-11-10 08:10 51°16.127 2°52.925 12.4 282 8.1 98930 43
2010-11-10 08:11 51°16.306 2°52.794 13.2 283 8 98950 43
2010-11-10 08:12 51°16.487 2°52.682 13.1 281 8 98950 44
2010-11-10 08:13 51°16.669 2°52.596 6.6 279 8.1 98950 44
2010-11-10 08:14 51°16.854 2°52.522 5.9 282 8.1 98970 43
2010-11-10 08:15 51°17.044 2°52.446 8.6 284 8.2 98960 43
2010-11-10 08:16 51°17.232 2°52.402 10.8 281 8.2 98970 44
2010-11-10 08:17 51°17.425 2°52.383 19.6 281 8.3 98950 44
2010-11-10 08:18 51°17.614 2°52.418 13.9 286 8.4 98930 42
2010-11-10 08:19 51°17.792 2°52.454 6.5 281 8.6 98970 41
2010-11-10 08:20 51°17.972 2°52.486 16.1 286 8.6 98960 42
2010-11-10 08:21 51°18.154 2°52.517 7 286 8.7 98950 42
2010-11-10 08:22 51°18.322 2°52.602 7.5 283 8.6 98950 43
2010-11-10 08:23 51°18.432 2°52.824 16 283 8.7 98910 43
2010-11-10 08:24 51°18.523 2°53.069 16.3 283 8.7 98950 43
2010-11-10 08:25 51°18.613 2°53.312 14.1 281 8.7 98950 42
2010-11-10 08:26 51°18.697 2°53.557 16.8 284 8.7 98960 41
2010-11-10 08:27 51°18.777 2°53.806 15 283 8.7 98950 39
2010-11-10 08:28 51°18.859 2°54.053 17 284 8.7 98950 41
2010-11-10 08:29 51°18.94 2°54.297 10.4 285 8.8 98980 40
2010-11-10 08:30 51°19.022 2°54.542 10.5 281 8.8 98950 41
2010-11-10 08:31 51°19.101 2°54.791 13 285 8.9 98960 40
2010-11-10 08:32 51°19.186 2°55.038 7.1 282 8.9 98960 40
2010-11-10 08:33 51°19.268 2°55.282 12.7 283 8.9 98980 42
2010-11-10 08:34 51°19.35 2°55.521 16.8 281 8.9 98970 40
2010-11-10 08:35 51°19.428 2°55.773 6.1 280 8.9 98950 39
2010-11-10 08:36 51°19.489 2°56.04 14.8 283 9 98970 39
2010-11-10 08:37 51°19.551 2°56.309 6.9 286 9 98960 41
2010-11-10 08:38 51°19.615 2°56.576 6.4 282 8.9 98980 39
2010-11-10 08:39 51°19.679 2°56.832 13.9 279 9 98990 41
2010-11-10 08:40 51°19.742 2°57.097 7.1 279 9.1 98990 41
2010-11-10 08:41 51°19.809 2°57.355 12.2 285 9.1 98990 40
2010-11-10 08:42 51°19.875 2°57.614 16.7 284 9.1 98960 39
2010-11-10 08:43 51°19.935 2°57.876 7.3 284 9.1 98980 40
2010-11-10 08:44 51°20 2°58.132 13.7 282 9.1 98980 40
2010-11-10 08:45 51°20.061 2°58.398 12.3 280 9 99010 40
2010-11-10 08:46 51°20.123 2°58.66 15.2 280 9.1 98970 40
2010-11-10 08:47 51°20.185 2°58.93 16.5 281 9.1 98990 41
2010-11-10 08:48 51°20.25 2°59.187 16.7 285 9.2 98980 40
2010-11-10 08:49 51°20.317 2°59.449 15.5 284 9.2 99000 40
2010-11-10 08:50 51°20.381 2°59.709 10.8 286 9.1 99000 40
2010-11-10 08:51 51°20.45 2°59.967 14.7 281 9 99020 41
2010-11-10 08:52 51°20.518 3°0.222 14.8 282 8.8 99010 42
2010-11-10 08:53 51°20.583 3°0.485 12.7 281 8.8 99010 41
2010-11-10 08:54 51°20.647 3°0.747 12.7 283 8.7 99010 40
2010-11-10 08:55 51°20.709 3°1.006 13.2 281 8.7 98990 42
2010-11-10 08:56 51°20.782 3°1.259 14.2 279 8.7 99010 42
2010-11-10 08:57 51°20.843 3°1.519 12.1 286 8.7 99030 40
2010-11-10 08:58 51°20.902 3°1.778 11 281 8.7 99020 41
2010-11-10 08:59 51°20.968 3°2.043 14.3 281 8.7 99030 40
2010-11-10 09:00 51°21.029 3°2.307 15 283 8.6 99000 41
2010-11-10 09:01 51°21.096 3°2.574 11.7 285 8.5 99030 42
2010-11-10 09:02 51°21.165 3°2.839 5.6 283 8.5 99020 42
2010-11-10 09:03 51°21.236 3°3.106 11.8 284 8.6 99030 42
2010-11-10 09:04 51°21.304 3°3.374 13.7 279 8.6 99040 42
2010-11-10 09:05 51°21.373 3°3.647 12.2 286 8.6 99030 42
2010-11-10 09:06 51°21.435 3°3.919 14.7 280 8.5 99020 43
2010-11-10 09:07 51°21.493 3°4.191 10.1 281 8.6 99040 41
2010-11-10 09:08 51°21.555 3°4.472 11.3 281 8.6 99030 41
2010-11-10 09:09 51°21.613 3°4.744 10.3 285 8.5 99030 40
2010-11-10 09:10 51°21.675 3°5.022 12.5 283 8.6 99040 42
2010-11-10 09:11 51°21.732 3°5.296 12.9 284 8.6 99030 42
2010-11-10 09:12 51°21.787 3°5.568 9.9 278 8.6 99030 42
2010-11-10 09:13 51°21.839 3°5.838 12 282 8.6 99040 41
2010-11-10 09:14 51°21.896 3°6.111 6.1 286 8.6 99040 42
2010-11-10 09:15 51°21.952 3°6.379 6.3 283 8.6 99040 41
2010-11-10 09:16 51°22.011 3°6.645 11.1 281 8.6 99030 41
2010-11-10 09:17 51°22.068 3°6.919 5.4 283 8.6 99040 40
2010-11-10 09:18 51°22.094 3°7.199 11.5 285 8.6 99040 40
2010-11-10 09:19 51°22.107 3°7.494 6.4 282 8.7 99040 42
2010-11-10 09:20 51°22.118 3°7.782 12.6 282 8.8 99050 41
2010-11-10 09:21 51°22.131 3°8.07 17.7 282 8.7 99020 41
2010-11-10 09:22 51°22.154 3°8.358 14.3 287 8.4 99030 43
2010-11-10 09:23 51°22.173 3°8.657 12.2 283 8.1 99060 41
2010-11-10 09:24 51°22.2 3°8.937 11.8 285 7.9 99070 43
2010-11-10 09:25 51°22.23 3°9.216 14 286 7.8 99060 43
2010-11-10 09:26 51°22.259 3°9.498 9.2 282 7.8 99070 44
2010-11-10 09:27 51°22.285 3°9.773 12.6 287 7.8 99080 42
2010-11-10 09:28 51°22.307 3°10.054 14.2 280 7.7 99070 42
2010-11-10 09:29 51°22.328 3°10.304 14.2 280 7.6 99060 43
2010-11-10 09:30 51°22.339 3°10.487 10.7 285 7.7 99080 44
2010-11-10 09:31 51°22.349 3°10.652 10.7 285 7.7 99080 42
2010-11-10 09:32 51°22.376 3°10.807 9.5 286 7.8 99090 43
2010-11-10 09:33 51°22.425 3°10.98 11 281 7.9 99080 45
2010-11-10 09:34 51°22.457 3°11.136 10.3 280 7.9 99080 43
2010-11-10 09:35 51°22.465 3°11.206 7.5 284 7.9 99080 45
2010-11-10 09:36 51°22.459 3°11.224 7.3 281 7.9 99090 42
2010-11-10 09:37 51°22.448 3°11.219 9.7 281 7.9 99090 43
2010-11-10 09:38 51°22.435 3°11.205 7.2 284 7.9 99100 45
2010-11-10 09:39 51°22.422 3°11.19 6.7 287 8.1 99110 42
2010-11-10 09:40 51°22.407 3°11.173 7.9 281 8.1 99100 43
2010-11-10 09:41 51°22.39 3°11.158 5 286 8.1 99100 44
2010-11-10 09:42 51°22.374 3°11.143 11.1 280 8 99100 44
2010-11-10 09:43 51°22.367 3°11.166 10.6 283 8.1 99110 44
2010-11-10 09:44 51°22.378 3°11.218 10.4 281 8.1 99110 43
2010-11-10 09:45 51°22.376 3°11.231 9.4 287 8.2 99100 43
2010-11-10 09:46 51°22.366 3°11.222 7.4 281 8.2 99100 40
2010-11-10 09:47 51°22.35 3°11.2 6.7 279 8.3 99110 42
2010-11-10 09:48 51°22.332 3°11.178 7.4 285 8.4 99110 40
2010-11-10 09:49 51°22.315 3°11.157 8.4 282 8.4 99120 40
2010-11-10 09:50 51°22.315 3°11.19 7.5 308 8.5 99120 40
2010-11-10 09:51 51°22.353 3°11.296 10.1 281 8.6 99130 42
2010-11-10 09:52 51°22.406 3°11.466 12.8 310 8.6 99120 41
2010-11-10 09:53 51°22.494 3°11.716 5.9 281 8.6 99100 42
2010-11-10 09:54 51°22.614 3°11.957 12.9 281 8.6 99110 41
2010-11-10 09:55 51°22.747 3°12.176 13.3 326 8.6 99120 42
2010-11-10 09:56 51°22.876 3°12.4 11.7 286 8.5 99120 42
2010-11-10 09:57 51°23.004 3°12.625 13.9 325 8.4 99130 42
2010-11-10 09:58 51°23.133 3°12.847 5.8 287 8.3 99130 43
2010-11-10 09:59 51°23.256 3°13.064 6.6 325 8.3 99140 41
2010-11-10 10:00 51°23.382 3°13.285 5.3 306 8.3 99120 41
2010-11-10 10:01 51°23.508 3°13.514 11.4 327 8.3 99140 43
2010-11-10 10:02 51°23.63 3°13.748 10.1 304 8.3 99140 42
2010-11-10 10:03 51°23.757 3°13.96 13.8 327 8.3 99140 41
2010-11-10 10:04 51°23.905 3°14.147 12.1 328 8.4 99140 40
2010-11-10 10:05 51°24.083 3°14.256 4.8 282 8.4 99160 41
2010-11-10 10:06 51°24.271 3°14.283 4.3 339 8.4 99130 41
2010-11-10 10:07 51°24.342 3°14.339 6.5 282 8.3 99160 43
2010-11-10 10:08 51°24.29 3°14.376 2.5 50 8.4 99170 41
2010-11-10 10:09 51°24.207 3°14.316 -999 77 8.5 99180 42
2010-11-10 10:10 51°24.146 3°14.233 -999 40 8.5 99180 43
2010-11-10 10:11 51°24.108 3°14.143 -999 31 8.5 99200 41
2010-11-10 10:12 51°24.086 3°14.059 8.4 24 8.5 99190 42
2010-11-10 10:13 51°24.072 3°13.977 8.9 20 8.5 99200 43
2010-11-10 10:14 51°24.066 3°13.883 12.3 14 8.6 99180 43
2010-11-10 10:15 51°24.065 3°13.789 4.4 4 8.7 99200 42
2010-11-10 10:16 51°24.069 3°13.701 3.9 7 8.7 99170 42
2010-11-10 10:17 51°24.068 3°13.613 10 8 8.8 99170 42
2010-11-10 10:18 51°24.072 3°13.512 5.2 9 9 99190 41
2010-11-10 10:19 51°24.076 3°13.415 9 18 8.8 99180 39
2010-11-10 10:20 51°24.071 3°13.317 11.5 17 8.8 99180 40
2010-11-10 10:21 51°24.061 3°13.216 7.6 21 8.7 99190 41
2010-11-10 10:22 51°24.052 3°13.102 8.4 24 8.8 99190 43
2010-11-10 10:23 51°24.042 3°12.987 9.7 21 8.7 99190 42
2010-11-10 10:24 51°24.031 3°12.89 7.3 18 8.7 99200 40
2010-11-10 10:25 51°24.021 3°12.802 8.4 23 8.7 99200 39
2010-11-10 10:26 51°24.01 3°12.714 9.7 21 8.7 99210 39
2010-11-10 10:27 51°23.998 3°12.626 8.8 14 8.8 99200 38
2010-11-10 10:28 51°23.983 3°12.541 8.3 16 8.9 99220 42
2010-11-10 10:29 51°23.97 3°12.456 8.6 19 8.9 99210 41
2010-11-10 10:30 51°23.958 3°12.37 8.5 17 8.7 99210 39
2010-11-10 10:31 51°23.943 3°12.283 8.5 17 8.7 99210 41
2010-11-10 10:32 51°23.929 3°12.198 10.3 19 8.6 99210 40
2010-11-10 10:33 51°23.917 3°12.108 7.2 25 8.5 99220 40
2010-11-10 10:34 51°23.906 3°12.017 9.4 22 8.6 99220 41
2010-11-10 10:35 51°23.892 3°11.926 8 27 8.7 99210 41
2010-11-10 10:36 51°23.878 3°11.837 8.3 26 8.6 99220 40
2010-11-10 10:37 51°23.859 3°11.749 7.1 34 8.6 99210 40
2010-11-10 10:38 51°23.835 3°11.661 8.1 30 8.6 99220 40
2010-11-10 10:39 51°23.812 3°11.575 8.4 28 8.6 99220 41
2010-11-10 10:40 51°23.788 3°11.486 7.6 33 8.5 99220 40
2010-11-10 10:41 51°23.768 3°11.394 5.9 29 8.4 99220 41
2010-11-10 10:42 51°23.749 3°11.3 6.2 31 8.5 99230 42
2010-11-10 10:43 51°23.725 3°11.21 5.9 33 8.6 99240 40
2010-11-10 10:44 51°23.704 3°11.119 8.8 29 8.5 99230 43
2010-11-10 10:45 51°23.689 3°11.034 7.7 27 8.6 99240 40
2010-11-10 10:46 51°23.673 3°10.952 7.1 28 8.6 99240 41
2010-11-10 10:47 51°23.66 3°10.867 7.5 24 8.6 99230 42
2010-11-10 10:48 51°23.652 3°10.782 7.2 14 8.5 99240 43
2010-11-10 10:49 51°23.642 3°10.709 6.3 13 8.6 99240 44
2010-11-10 10:50 51°23.629 3°10.658 6.1 20 8.7 99240 43
2010-11-10 10:51 51°23.611 3°10.617 6.3 23 8.7 99240 40
2010-11-10 10:52 51°23.59 3°10.582 5.3 26 8.5 99240 41
2010-11-10 10:53 51°23.57 3°10.544 5.6 27 8.6 99240 43
2010-11-10 10:54 51°23.558 3°10.485 6.4 14 8.5 99250 42
2010-11-10 10:55 51°23.568 3°10.361 6.5 6 8.6 99230 43
2010-11-10 10:56 51°23.623 3°10.175 6 347 8.6 99240 42
2010-11-10 10:57 51°23.741 3°9.987 12.1 350 8.6 99230 42
2010-11-10 10:58 51°23.878 3°9.76 12.8 349 8.7 99230 42
2010-11-10 10:59 51°23.981 3°9.455 5.1 354 8.7 99250 41
2010-11-10 11:00 51°24.077 3°9.15 5 353 8.7 99260 41
2010-11-10 11:01 51°24.174 3°8.846 6.5 351 8.8 99240 41
2010-11-10 11:02 51°24.226 3°8.673 5.1 1 8.8 99240 42
2010-11-10 11:03 51°24.235 3°8.587 8.1 1 8.8 99280 42
2010-11-10 11:04 51°24.224 3°8.545 4.9 5 8.7 99290 44
2010-11-10 11:05 51°24.212 3°8.511 8.4 351 8.3 99270 43
2010-11-10 11:06 51°24.204 3°8.471 6.1 286 8.2 99270 43
2010-11-10 11:07 51°24.197 3°8.429 5.4 346 8.1 99280 43
2010-11-10 11:08 51°24.192 3°8.388 5.3 353 8 99280 41
2010-11-10 11:09 51°24.192 3°8.344 6.4 359 8 99270 42
2010-11-10 11:10 51°24.19 3°8.303 12.8 281 8 99270 43
2010-11-10 11:11 51°24.188 3°8.262 9.3 281 8.2 99260 45
2010-11-10 11:12 51°24.184 3°8.229 12.5 282 8.3 99270 43
2010-11-10 11:13 51°24.189 3°8.188 10.9 282 8.4 99260 44
2010-11-10 11:14 51°24.211 3°8.149 6.1 281 8.4 99270 43
2010-11-10 11:15 51°24.245 3°8.113 6.3 287 8.6 99260 43
2010-11-10 11:16 51°24.273 3°8.085 6.6 282 8.6 99260 42
2010-11-10 11:17 51°24.282 3°8.064 11.6 281 8.6 99270 43
2010-11-10 11:18 51°24.281 3°8.039 13.5 283 8.7 99280 44
2010-11-10 11:19 51°24.271 3°8.009 4.3 356 8.8 99280 43
2010-11-10 11:20 51°24.268 3°7.97 10.4 353 8.8 99280 44
2010-11-10 11:21 51°24.281 3°7.933 10.5 285 8.8 99280 43
2010-11-10 11:22 51°24.298 3°7.908 4.8 280 8.6 99290 43
2010-11-10 11:23 51°24.315 3°7.893 5 283 8.3 99300 42
2010-11-10 11:24 51°24.337 3°7.867 4.6 281 8.2 99290 44
2010-11-10 11:25 51°24.358 3°7.839 4.2 282 8.2 99300 43
2010-11-10 11:26 51°24.383 3°7.81 4 283 8.2 99310 43
2010-11-10 11:27 51°24.412 3°7.778 10.2 283 8.4 99290 45
2010-11-10 11:28 51°24.435 3°7.743 8 287 8.4 99300 42
2010-11-10 11:29 51°24.453 3°7.709 5.3 282 8.3 99300 41
2010-11-10 11:30 51°24.465 3°7.674 11.2 282 8.2 99300 41
2010-11-10 11:31 51°24.476 3°7.641 7.6 283 8.2 99310 44
2010-11-10 11:32 51°24.494 3°7.605 4.4 355 8.3 99310 44
2010-11-10 11:33 51°24.512 3°7.569 4.4 351 8.1 99300 44
2010-11-10 11:34 51°24.53 3°7.535 10.1 282 8 99310 43
2010-11-10 11:35 51°24.54 3°7.505 4.4 282 8.1 99310 44
2010-11-10 11:36 51°24.549 3°7.472 8.6 285 8.2 99330 42
2010-11-10 11:37 51°24.561 3°7.447 11.6 288 8.3 99320 42
2010-11-10 11:38 51°24.57 3°7.427 10.7 285 8.5 99330 42
2010-11-10 11:39 51°24.609 3°7.389 13.4 280 8.5 99320 43
2010-11-10 11:40 51°24.71 3°7.325 15.3 284 8.6 99310 43
2010-11-10 11:41 51°24.812 3°7.288 13.9 287 8.6 99330 41
2010-11-10 11:42 51°24.929 3°7.242 6.9 281 8.7 99320 42
2010-11-10 11:43 51°25.044 3°7.224 7.5 281 8.6 99330 42
2010-11-10 11:44 51°25.154 3°7.266 7.8 282 8.6 99320 42
2010-11-10 11:45 51°25.263 3°7.33 15.4 306 8.4 99320 41
2010-11-10 11:46 51°25.372 3°7.393 7.9 282 8.4 99300 41
2010-11-10 11:47 51°25.486 3°7.477 9.2 280 8.4 99310 39
2010-11-10 11:48 51°25.585 3°7.603 16.7 286 8.4 99280 39
2010-11-10 11:49 51°25.702 3°7.744 7.4 283 8.4 99300 40
2010-11-10 11:50 51°25.825 3°7.882 19.6 282 8.5 99300 42
2010-11-10 11:51 51°25.951 3°8.022 19.3 285 8.5 99320 41
2010-11-10 11:52 51°26.061 3°8.204 18 283 8.5 99310 40
2010-11-10 11:53 51°26.15 3°8.413 13.9 285 8.4 99320 41
2010-11-10 11:54 51°26.23 3°8.591 7 286 8.3 99310 40
2010-11-10 11:55 51°26.259 3°8.688 12.4 283 8.3 99330 40
2010-11-10 11:56 51°26.269 3°8.762 9.1 283 8.4 99340 41
2010-11-10 11:57 51°26.274 3°8.823 11.6 281 8.4 99350 43
2010-11-10 11:58 51°26.278 3°8.886 7.2 283 8.3 99340 40
2010-11-10 11:59 51°26.348 3°9.041 7 282 8.3 99330 40
2010-11-10 12:00 51°26.469 3°9.265 14.7 283 8.3 99340 41
2010-11-10 12:01 51°26.595 3°9.501 14.3 283 8.2 99330 39
2010-11-10 12:02 51°26.7 3°9.76 14.9 286 8.3 99350 42
2010-11-10 12:03 51°26.775 3°10.058 18.5 280 8.3 99340 40
2010-11-10 12:04 51°26.844 3°10.359 13.6 286 8.3 99340 41
2010-11-10 12:05 51°26.919 3°10.654 13.9 282 8.3 99340 41
2010-11-10 12:06 51°26.991 3°10.955 15.1 283 8.2 99360 40
2010-11-10 12:07 51°27.069 3°11.254 6.7 287 8.3 99340 42
2010-11-10 12:08 51°27.152 3°11.547 14.7 281 8.3 99340 40
2010-11-10 12:09 51°27.231 3°11.845 9 282 8.3 99350 42
2010-11-10 12:10 51°27.311 3°12.149 10.9 278 8.3 99350 42
2010-11-10 12:11 51°27.338 3°12.488 9.7 278 8.3 99370 41
2010-11-10 12:12 51°27.337 3°12.826 8.8 286 8.4 99350 42
2010-11-10 12:13 51°27.321 3°13.165 5.3 281 8.4 99350 43
2010-11-10 12:14 51°27.316 3°13.498 9 286 8.3 99360 42
2010-11-10 12:15 51°27.308 3°13.836 7.8 280 8.3 99360 42
2010-11-10 12:16 51°27.282 3°14.117 5.9 287 8.4 99380 41
2010-11-10 12:17 51°27.272 3°14.238 7.8 285 8.5 99380 41
2010-11-10 12:18 51°27.247 3°14.28 5.2 285 8.5 99400 43
2010-11-10 12:19 51°27.218 3°14.31 10.9 281 8.5 99410 41
2010-11-10 12:20 51°27.188 3°14.333 8.5 280 8.4 99390 39
2010-11-10 12:21 51°27.154 3°14.354 8.5 285 8.4 99400 39
2010-11-10 12:22 51°27.119 3°14.37 7.8 287 8.5 99400 39
2010-11-10 12:23 51°27.083 3°14.385 8.4 282 8.7 99400 41
2010-11-10 12:24 51°27.048 3°14.401 8.7 283 8.6 99400 38
2010-11-10 12:25 51°27.014 3°14.418 10.2 284 8.6 99390 38
2010-11-10 12:26 51°26.979 3°14.433 11.9 287 8.7 99400 41
2010-11-10 12:27 51°26.949 3°14.463 9.4 284 8.7 99380 38
2010-11-10 12:28 51°26.953 3°14.511 10.6 280 8.8 99380 40
2010-11-10 12:29 51°26.998 3°14.494 11.8 282 8.8 99380 39
2010-11-10 12:30 51°27.112 3°14.409 4.9 288 8.8 99370 41
2010-11-10 12:31 51°27.249 3°14.298 7 280 8.8 99380 39
2010-11-10 12:32 51°27.352 3°14.07 13.2 282 8.8 99370 39
2010-11-10 12:33 51°27.448 3°13.839 15.4 280 8.8 99380 41
2010-11-10 12:34 51°27.549 3°13.598 6.7 278 8.9 99380 41
2010-11-10 12:35 51°27.647 3°13.37 14.9 283 8.8 99380 39
2010-11-10 12:36 51°27.747 3°13.138 7.3 287 8.7 99350 40
2010-11-10 12:37 51°27.848 3°12.904 15.4 284 8.6 99370 41
2010-11-10 12:38 51°27.948 3°12.672 7.5 279 8.6 99370 40
2010-11-10 12:39 51°28.046 3°12.44 12.7 284 8.6 99380 41
2010-11-10 12:40 51°28.141 3°12.207 14.2 280 8.6 99380 40
2010-11-10 12:41 51°28.244 3°11.973 13.8 281 8.5 99380 41
2010-11-10 12:42 51°28.348 3°11.735 7.8 283 8.6 99400 41
2010-11-10 12:43 51°28.452 3°11.499 7.3 286 8.5 99400 39
2010-11-10 12:44 51°28.559 3°11.262 7.3 284 8.4 99410 40
2010-11-10 12:45 51°28.664 3°11.024 6.9 285 8.5 99430 40
2010-11-10 12:46 51°28.771 3°10.787 7.1 284 8.6 99420 40
2010-11-10 12:47 51°28.875 3°10.548 6.6 282 8.7 99420 40
2010-11-10 12:48 51°28.975 3°10.316 8.9 280 8.7 99420 40
2010-11-10 12:49 51°29.076 3°10.081 8.7 283 8.6 99410 42
2010-11-10 12:50 51°29.176 3°9.852 18.8 284 8.3 99390 41
2010-11-10 12:51 51°29.273 3°9.622 18.9 284 8 99410 42
2010-11-10 12:52 51°29.382 3°9.382 8.4 285 7.9 99420 41
2010-11-10 12:53 51°29.488 3°9.143 18 283 7.8 99430 43
2010-11-10 12:54 51°29.594 3°8.903 15.5 283 7.7 99420 42
2010-11-10 12:55 51°29.704 3°8.659 8 283 7.6 99440 41
2010-11-10 12:56 51°29.814 3°8.424 13.6 280 7.2 99460 43
2010-11-10 12:57 51°29.937 3°8.205 7.8 281 7.2 99460 44
2010-11-10 12:58 51°30.059 3°7.991 6.8 283 6.9 99460 42
2010-11-10 12:59 51°30.181 3°7.776 6.7 284 6.7 99460 44
2010-11-10 13:00 51°30.31 3°7.55 12.8 353 6.6 99490 41
2010-11-10 13:01 51°30.439 3°7.324 12.2 352 6.5 99450 43
2010-11-10 13:02 51°30.573 3°7.093 3.9 354 6.5 99460 43
2010-11-10 13:03 51°30.7 3°6.87 11.8 348 6.7 99420 43
2010-11-10 13:04 51°30.823 3°6.646 9.9 351 6.8 99450 40
2010-11-10 13:05 51°30.955 3°6.409 5.7 282 7 99420 42
2010-11-10 13:06 51°31.084 3°6.182 8.7 352 7.3 99440 42
2010-11-10 13:07 51°31.21 3°5.956 10.8 354 7.4 99440 42
2010-11-10 13:08 51°31.341 3°5.726 9.5 351 7.5 99460 42
2010-11-10 13:09 51°31.478 3°5.494 15.8 284 7.7 99460 43
2010-11-10 13:10 51°31.605 3°5.278 7.9 282 7.9 99450 40
2010-11-10 13:11 51°31.731 3°5.058 8.1 281 8 99450 41
2010-11-10 13:12 51°31.857 3°4.851 18.3 282 8.4 99450 40
2010-11-10 13:13 51°31.981 3°4.644 7.6 283 8.5 99470 39
2010-11-10 13:14 51°32.108 3°4.433 8.4 282 8.6 99470 38
2010-11-10 13:15 51°32.238 3°4.223 7.7 282 8.6 99450 38
2010-11-10 13:16 51°32.369 3°4.013 16.7 284 8.6 99450 39
2010-11-10 13:17 51°32.501 3°3.81 7.9 282 8.1 99440 41
2010-11-10 13:18 51°32.633 3°3.6 7.8 284 8.1 99460 40
2010-11-10 13:19 51°32.755 3°3.397 17 283 8.2 99470 39
2010-11-10 13:20 51°32.885 3°3.182 16.9 285 8.3 99480 39
2010-11-10 13:21 51°33.006 3°2.976 16.7 283 8.5 99460 38
2010-11-10 13:22 51°33.127 3°2.775 12.7 287 8.5 99470 39
2010-11-10 13:23 51°33.252 3°2.571 6.2 282 8.6 99470 38
2010-11-10 13:24 51°33.373 3°2.371 8.1 281 8.6 99500 38
2010-11-10 13:25 51°33.506 3°2.165 8 283 8.7 99470 39
2010-11-10 13:26 51°33.633 3°1.956 15.5 283 8.8 99480 38
2010-11-10 13:27 51°33.763 3°1.747 15.5 285 8.9 99510 39
2010-11-10 13:28 51°33.899 3°1.537 7.7 282 8.9 99490 37
2010-11-10 13:29 51°34.021 3°1.335 16.4 283 8.8 99470 38
2010-11-10 13:30 51°34.145 3°1.13 8 284 8.8 99480 38
2010-11-10 13:31 51°34.256 3°0.909 8 282 8.9 99480 39
2010-11-10 13:32 51°34.365 3°0.676 8.2 285 9 99480 38
2010-11-10 13:33 51°34.476 3°0.443 15.5 283 8.9 99490 38
2010-11-10 13:34 51°34.554 3°0.276 6.8 281 8.9 99510 39
2010-11-10 13:35 51°34.589 3°0.268 12.9 278 8.8 99490 38
2010-11-10 13:36 51°34.579 3°0.306 9.8 282 8.9 99510 38
2010-11-10 13:37 51°34.559 3°0.338 7.8 286 8.9 99540 39
2010-11-10 13:38 51°34.538 3°0.371 9.2 285 8.9 99550 38
2010-11-10 13:39 51°34.519 3°0.406 11.1 282 8.9 99540 37
2010-11-10 13:40 51°34.499 3°0.439 10.2 285 9 99540 37
2010-11-10 13:41 51°34.481 3°0.474 13.2 279 9.1 99540 37
2010-11-10 13:42 51°34.462 3°0.508 7.3 281 9.2 99530 40
2010-11-10 13:43 51°34.441 3°0.54 8.2 278 9.2 99530 37
2010-11-10 13:44 51°34.42 3°0.57 9.8 80 9.1 99540 36
2010-11-10 13:45 51°34.397 3°0.6 10.3 283 9.2 99550 36
2010-11-10 13:46 51°34.377 3°0.633 8.9 283 9.2 99560 38
2010-11-10 13:47 51°34.356 3°0.668 9.8 287 9.2 99560 36
2010-11-10 13:48 51°34.336 3°0.7 8.4 280 9.1 99570 36
2010-11-10 13:49 51°34.316 3°0.738 6.5 286 9.2 99550 39
2010-11-10 13:50 51°34.28 3°0.825 5.7 80 9.2 99580 37
2010-11-10 13:51 51°34.204 3°0.837 9.1 15 9.2 99540 36
2010-11-10 13:52 51°34.137 3°0.68 11.5 13 9.2 99510 35
2010-11-10 13:53 51°34.018 3°0.46 9.8 13 9.1 99540 35
2010-11-10 13:54 51°33.885 3°0.228 11.2 13 9.2 99540 35
2010-11-10 13:55 51°33.761 2°59.981 8.6 11 9.2 99540 37
2010-11-10 13:56 51°33.626 2°59.745 8.9 359 9.3 99540 36
2010-11-10 13:57 51°33.5 2°59.499 8.9 7 9.2 99510 37
2010-11-10 13:58 51°33.38 2°59.251 14.4 9 9.2 99530 36
2010-11-10 13:59 51°33.262 2°58.995 14.5 10 9.2 99530 37
2010-11-10 14:00 51°33.142 2°58.745 13.7 7 9.2 99540 37
2010-11-10 14:01 51°33.018 2°58.499 6.8 10 9.2 99540 36
2010-11-10 14:02 51°32.896 2°58.254 6.5 7 9.2 99540 36
2010-11-10 14:03 51°32.778 2°58.005 12.7 5 9.2 99550 35
2010-11-10 14:04 51°32.663 2°57.754 5.9 11 9.2 99540 37
2010-11-10 14:05 51°32.555 2°57.5 10.7 13 9.2 99560 37
2010-11-10 14:06 51°32.505 2°57.22 16.4 355 9.1 99540 36
2010-11-10 14:07 51°32.561 2°56.931 11.6 281 9.2 99540 36
2010-11-10 14:08 51°32.66 2°56.679 14.6 282 9.2 99560 36
2010-11-10 14:09 51°32.802 2°56.489 17.7 286 9.3 99550 38
2010-11-10 14:10 51°32.943 2°56.293 7.2 341 9.2 99550 37
2010-11-10 14:11 51°33.079 2°56.096 14.6 287 9.2 99550 37
2010-11-10 14:12 51°33.215 2°55.886 15.7 282 9 99540 37
2010-11-10 14:13 51°33.285 2°55.617 11.2 353 9.1 99530 38
2010-11-10 14:14 51°33.28 2°55.329 14.2 4 9.2 99560 36
2010-11-10 14:15 51°33.144 2°55.127 7.1 28 9.2 99580 38
2010-11-10 14:16 51°32.952 2°55.2 4 76 9.3 99600 39
2010-11-10 14:17 51°32.81 2°55.475 5 310 9.3 99610 39
2010-11-10 14:18 51°32.648 2°55.729 4.9 57 9.3 99600 36
2010-11-10 14:19 51°32.48 2°55.963 5.1 284 9.3 99620 39
2010-11-10 14:20 51°32.321 2°56.184 6.2 79 9.2 99610 38
2010-11-10 14:21 51°32.248 2°56.33 10.3 77 9.2 99620 36
2010-11-10 14:22 51°32.223 2°56.436 10.8 36 9.2 99620 37
2010-11-10 14:23 51°32.214 2°56.517 7 280 9.2 99610 37
2010-11-10 14:24 51°32.207 2°56.58 8.5 303 9.2 99590 38
2010-11-10 14:25 51°32.201 2°56.625 9 279 9.2 99630 39
2010-11-10 14:26 51°32.195 2°56.663 12 286 9.3 99610 38
2010-11-10 14:27 51°32.191 2°56.699 11.4 281 9.4 99630 38
2010-11-10 14:28 51°32.187 2°56.736 9.3 280 9.4 99620 38
2010-11-10 14:29 51°32.181 2°56.772 8.7 284 9.3 99620 37
2010-11-10 14:30 51°32.174 2°56.815 8.4 281 9.3 99620 39
2010-11-10 14:31 51°32.151 2°56.916 5.6 76 9.3 99620 38
2010-11-10 14:32 51°32.071 2°56.944 7 39 9.3 99630 38
2010-11-10 14:33 51°31.915 2°56.91 6.6 32 9.3 99630 38
2010-11-10 14:34 51°31.736 2°56.799 8.9 20 9.3 99620 39
2010-11-10 14:35 51°31.571 2°56.649 8.2 27 9.3 99620 38
2010-11-10 14:36 51°31.386 2°56.559 4.8 33 9.3 99640 37
2010-11-10 14:37 51°31.188 2°56.503 5.7 25 9.3 99640 39
2010-11-10 14:38 51°31.002 2°56.412 7.3 23 9.3 99630 39
2010-11-10 14:39 51°30.808 2°56.334 6.1 27 9.3 99630 41
2010-11-10 14:40 51°30.615 2°56.253 6.8 23 9.3 99640 40
2010-11-10 14:41 51°30.429 2°56.156 4.6 25 9.3 99650 38
2010-11-10 14:42 51°30.245 2°56.061 6.4 34 9.3 99650 41
2010-11-10 14:43 51°30.058 2°55.977 8.3 24 9.2 99660 37
2010-11-10 14:44 51°29.875 2°55.892 8.4 27 9.3 99650 38
2010-11-10 14:45 51°29.689 2°55.813 8 23 9.2 99650 38
2010-11-10 14:46 51°29.501 2°55.726 10.2 23 9.2 99650 39
2010-11-10 14:47 51°29.313 2°55.638 9.2 18 9.1 99640 38
2010-11-10 14:48 51°29.135 2°55.527 6.6 19 9.1 99660 38
2010-11-10 14:49 51°28.949 2°55.448 10 26 9.1 99660 40
2010-11-10 14:50 51°28.765 2°55.35 9.8 25 9.1 99650 39
2010-11-10 14:51 51°28.581 2°55.24 6.9 23 9.1 99670 38
2010-11-10 14:52 51°28.387 2°55.151 5.5 40 9 99660 39
2010-11-10 14:53 51°28.202 2°55.07 6.9 21 9 99660 37
2010-11-10 14:54 51°28.019 2°54.963 9 25 9 99670 38
2010-11-10 14:55 51°27.833 2°54.862 7.2 25 9 99650 37
2010-11-10 14:56 51°27.651 2°54.76 7.9 28 9 99670 39
2010-11-10 14:57 51°27.461 2°54.669 6.3 21 9 99660 40
2010-11-10 14:58 51°27.275 2°54.574 4.8 35 9 99670 39
2010-11-10 14:59 51°27.088 2°54.496 7.6 36 9 99680 38
2010-11-10 15:00 51°26.901 2°54.451 7.1 33 9 99670 39
2010-11-10 15:01 51°26.714 2°54.395 5.7 30 9 99690 40
2010-11-10 15:02 51°26.524 2°54.338 6 36 9 99690 38
2010-11-10 15:03 51°26.336 2°54.288 6.6 30 9.1 99690 38
2010-11-10 15:04 51°26.148 2°54.226 7 22 9 99690 38
2010-11-10 15:05 51°25.961 2°54.163 3.8 33 9 99700 37
2010-11-10 15:06 51°25.766 2°54.125 7 27 9 99700 40
2010-11-10 15:07 51°25.583 2°54.045 7.8 22 9 99700 37
2010-11-10 15:08 51°25.398 2°53.955 7.2 22 9 99700 40
2010-11-10 15:09 51°25.212 2°53.863 7.5 27 9.1 99710 37
2010-11-10 15:10 51°25.025 2°53.781 7.4 26 9 99710 37
2010-11-10 15:11 51°24.836 2°53.695 7.4 29 9.1 99720 37
2010-11-10 15:12 51°24.646 2°53.628 3.6 26 9 99720 38
2010-11-10 15:13 51°24.453 2°53.573 4.8 25 9.1 99720 38
2010-11-10 15:14 51°24.26 2°53.516 5.5 27 9.1 99720 38
2010-11-10 15:15 51°24.067 2°53.451 7.2 28 9.1 99730 36
2010-11-10 15:16 51°23.879 2°53.355 8 30 9 99720 36
2010-11-10 15:17 51°23.691 2°53.284 5.5 26 9.1 99730 38
2010-11-10 15:18 51°23.5 2°53.221 5.5 25 9.1 99730 37
2010-11-10 15:19 51°23.311 2°53.169 4.3 24 9.1 99730 39
2010-11-10 15:20 51°23.12 2°53.11 7.3 14 9.1 99730 39
2010-11-10 15:21 51°22.928 2°53.055 6.4 31 9.1 99740 39
2010-11-10 15:22 51°22.738 2°53.005 7.6 22 9.2 99730 40
2010-11-10 15:23 51°22.555 2°52.923 5.5 17 9.1 99740 39
2010-11-10 15:24 51°22.367 2°52.868 5.1 23 9.1 99750 38
2010-11-10 15:25 51°22.178 2°52.83 5 22 9.1 99750 39
2010-11-10 15:26 51°21.99 2°52.786 4.8 24 9.1 99750 40
2010-11-10 15:27 51°21.802 2°52.727 6 28 9.1 99760 39
2010-11-10 15:28 51°21.613 2°52.673 6.5 22 9.1 99750 38
2010-11-10 15:29 51°21.419 2°52.661 4.5 26 9.1 99760 40
2010-11-10 15:30 51°21.224 2°52.628 9.9 14 9.1 99770 38
2010-11-10 15:31 51°21.04 2°52.544 9 19 9.1 99760 39
2010-11-10 15:32 51°20.857 2°52.472 6.3 24 9.1 99770 38
2010-11-10 15:33 51°20.665 2°52.436 7.2 27 9.1 99770 38
2010-11-10 15:34 51°20.468 2°52.426 3.7 32 9.1 99780 39
2010-11-10 15:35 51°20.27 2°52.428 5.6 29 9.1 99770 39
2010-11-10 15:36 51°20.075 2°52.416 7.2 22 9.1 99780 40
2010-11-10 15:37 51°19.881 2°52.423 7.9 23 9.3 99780 41
2010-11-10 15:38 51°19.688 2°52.402 7 25 9.2 99770 42
2010-11-10 15:39 51°19.493 2°52.389 9.1 26 9.2 99780 43
2010-11-10 15:40 51°19.294 2°52.4 9.9 24 9 99780 40
2010-11-10 15:41 51°19.103 2°52.364 8.3 24 8.9 99780 42
2010-11-10 15:42 51°18.908 2°52.313 11.3 21 8.8 99770 42
2010-11-10 15:43 51°18.71 2°52.297 7.2 27 8.8 99770 41
2010-11-10 15:44 51°18.513 2°52.33 8.9 21 8.8 99780 42
2010-11-10 15:45 51°18.311 2°52.351 9.9 29 8.6 99780 42
2010-11-10 15:46 51°18.121 2°52.321 11.8 19 8.5 99800 42
2010-11-10 15:47 51°17.937 2°52.253 7.4 15 8.4 99790 42
2010-11-10 15:48 51°17.75 2°52.189 10.8 24 8.4 99790 43
2010-11-10 15:49 51°17.558 2°52.146 5.6 26 8.2 99810 43
2010-11-10 15:50 51°17.356 2°52.171 5.9 35 8.3 99820 41
2010-11-10 15:51 51°17.165 2°52.263 5.4 40 8.2 99830 42
2010-11-10 15:52 51°16.976 2°52.4 4.7 80 8.2 99830 40
2010-11-10 15:53 51°16.79 2°52.539 4.7 44 8.1 99840 40
2010-11-10 15:54 51°16.604 2°52.693 3.4 44 8.1 99830 42
2010-11-10 15:55 51°16.425 2°52.869 6.6 77 8.2 99830 41
2010-11-10 15:56 51°16.252 2°53.07 5 81 8.3 99840 39
2010-11-10 15:57 51°16.071 2°53.235 4.4 43 8.5 99840 42
2010-11-10 15:58 51°15.888 2°53.388 1.4 78 8.6 99840 41
2010-11-10 15:59 51°15.71 2°53.579 4.1 81 8.4 99850 41
2010-11-10 16:00 51°15.54 2°53.787 -999 77 8.3 99840 43
2010-11-10 16:01 51°15.367 2°53.994 -999 77 8.2 99850 41
2010-11-10 16:02 51°15.194 2°54.203 0.2 287 8.2 99840 41
2010-11-10 16:03 51°15.053 2°54.384 4 85 8.3 99850 39
2010-11-10 16:04 51°14.929 2°54.566 5.8 78 8.2 99850 40
2010-11-10 16:05 51°14.802 2°54.738 5.2 81 8.2 99850 42
2010-11-10 16:06 51°14.673 2°54.896 3.9 284 8.2 99840 41
2010-11-10 16:07 51°14.518 2°55.042 2.9 74 8.1 99850 42
2010-11-10 16:08 51°14.341 2°55.182 1.8 287 8.1 99850 39
2010-11-10 16:09 51°14.19 2°55.355 -999 77 8 99850 41
2010-11-10 16:10 51°14.062 2°55.452 3.8 20 8 99850 39
2010-11-10 16:11 51°13.951 2°55.536 2.9 33 8.1 99850 39
2010-11-10 16:12 51°13.841 2°55.619 1.8 79 8 99850 40
2010-11-10 16:13 51°13.756 2°55.721 4.5 80 8.1 99860 41
2010-11-10 16:14 51°13.703 2°55.827 4.5 80 8.1 99860 41
2010-11-10 16:15 51°13.669 2°55.917 5.7 75 8.3 99860 38